This demonstration page uses our WeatherBlox Daily Observations layout. Learn more.

Left ArrowRight Arrow

38.20091, -84.87328

Hourly Observations for July 31, 2020

Temp ( °F °C ) Dew Point ( °F °C ) Humidity (%) Winds ( mph kmh ) Pressure ( in mb ) Visibility ( mi km ) Precip ( " mm )
12:53 am 00:53 Cloudy 72 22.2 69 20.6 91 91 Calm 29.77 1008 10 16 0.00 0.00
1:53 am 01:53 Cloudy 71 21.7 69 20.6 94 94 N 3 6 29.76 1008 8 13 0.00 0.00
2:04 am 02:04 Cloudy with Mist and Fog 71 21.7 69 20.6 94 94 NNW 5 7 29.77 1008 2 3 0.00 0.00
2:41 am 02:41 Cloudy with Rain 70 21.1 68 20 93 93 NW 6 9 29.77 1008 2 3 0.05 1.27
2:53 am 02:53 Cloudy with Heavy Rain 70 21.1 68 20 93 93 NNW 6 9 29.77 1008 2 3 0.12 3.05
3:12 am 03:12 Cloudy with Light Rain 70 21.1 68 20 93 93 NNW 5 7 29.78 1008 3 5 0.04 1.02
3:31 am 03:31 Cloudy with Mist and Fog 70 21.1 68 20 93 93 N 5 7 29.78 1008 6 10 0.05 1.27
3:49 am 03:49 Cloudy 70 21 68 20 94 94 Calm 29.78 1008 8 13 0.05 1.27
3:53 am 03:53 Cloudy 70 21.1 68 20 93 93 N 5 7 29.78 1008 8 13 0.05 1.27
4:21 am 04:21 Cloudy with Mist and Fog 70 21.1 68 20 93 93 NNE 3 6 29.78 1008 2 3 0.00 0.00
4:27 am 04:27 Cloudy with Mist and Fog 70 21.1 68 20 93 93 Calm 29.78 1008 1 1 0.00 0.00
4:53 am 04:53 Mostly Cloudy with Mist and Fog 70 21.1 68 20 93 93 N 5 7 29.78 1009 1 1 0.00 0.00
5:16 am 05:16 Cloudy with Mist and Fog 70 21.1 69 20.6 97 97 Calm 29.79 1009 1 2 0.00 0.00
5:24 am 05:24 Cloudy with Mist and Fog 70 21.1 69 20.6 97 97 Calm 29.79 1009 1 2 0.00 0.00
5:53 am 05:53 Cloudy with Mist and Fog 70 21.1 69 20.6 97 97 Calm 29.79 1009 2 2 0.00 0.00
6:02 am 06:02 Cloudy with Mist and Fog 70 21.1 69 20.6 97 97 Calm 29.80 1009 3 5 0.00 0.00
6:53 am 06:53 Cloudy with Mist and Fog 70 21.1 69 20.6 97 97 Calm 29.80 1009 5 8 0.00 0.00
7:34 am 07:34 Cloudy with Light Rain 71 21.7 69 20.6 94 94 Calm 29.82 1010 2 3 0.02 0.51
7:50 am 07:50 Cloudy with Mist and Fog 72 22 70 21 94 94 Calm 29.82 1010 4 6 0.03 0.76
7:53 am 07:53 Cloudy with Mist and Fog 71 21.7 69 20.6 94 94 Calm 29.83 1010 4 6 0.03 0.76
8:53 am 08:53 Cloudy with Mist and Fog 72 22.2 69 20.6 91 91 Calm 29.83 1010 6 10 0.00 0.00
9:36 am 09:36 Cloudy 73 22.8 69 20.6 87 87 Calm 29.84 1011 9 14 0.00 0.00
9:53 am 09:53 Cloudy 73 22.8 69 20.6 87 87 Calm 29.85 1011 10 16 0.00 0.00
10:04 am 10:04 Cloudy 73 22.8 69 20.6 87 87 N 3 6 29.84 1011 9 14 0.00 0.00
10:19 am 10:19 Cloudy with Mist and Fog 73 22.8 69 20.6 87 87 N 3 6 29.84 1011 6 10 0.00 0.00
10:51 am 10:51 Cloudy with Mist and Fog 72 22 70 21 94 94 VRB 3 6 29.86 1011 3 5 0.00 0.00
10:53 am 10:53 Cloudy with Mist and Fog 72 22.2 70 21.1 94 94 NE 5 7 29.86 1011 3 5 0.00 0.00
11:13 am 11:13 Cloudy with Mist and Fog 73 22.8 70 21.1 90 90 Calm 29.85 1011 3 4 0.00 0.00
11:31 am 11:31 Cloudy with Mist and Fog 73 22.8 70 21.1 90 90 Calm 29.86 1011 4 6 0.00 0.00
11:39 am 11:39 Cloudy with Mist and Fog 73 22.8 70 21.1 90 90 Calm 29.86 1011 5 8 0.00 0.00
11:53 am 11:53 Cloudy with Mist and Fog 73 22.8 70 21.1 90 90 ENE 3 6 29.87 1012 3 5 0.00 0.00
12:17 pm 12:17 Cloudy with Mist and Fog 74 23.3 70 21.1 88 88 NE 3 6 29.86 1011 3 5 0.00 0.00
12:53 pm 12:53 Cloudy 75 23.9 70 21.1 84 84 Calm 29.87 1011 10 16 0.00 0.00
1:46 pm 13:46 Cloudy 79 26.1 72 22.2 79 79 SW 5 7 29.85 1011 10 16 0.00 0.00
1:53 pm 13:53 Cloudy 78 25.6 71 21.7 79 79 Calm 29.86 1011 10 16 0.00 0.00
2:53 pm 14:53 Cloudy 82 27.8 71 21.7 69 69 Calm 29.84 1011 10 16 0.00 0.00
3:02 pm 15:02 Cloudy 82 27.8 71 21.7 69 69 VRB 3 6 29.83 1010 10 16 0.00 0.00
3:53 pm 15:53 Cloudy 81 27.2 71 21.7 72 72 N 5 7 29.83 1010 10 16 0.00 0.00
4:53 pm 16:53 Mostly Cloudy 81 27.2 71 21.7 72 72 NNE 8 13 29.82 1010 10 16 0.00 0.00
5:53 pm 17:53 Partly Cloudy 80 26.7 71 21.7 74 74 ENE 5 7 29.83 1010 10 16 0.00 0.00
6:53 pm 18:53 Mostly Cloudy with Light Rain 79 26.1 72 22.2 79 79 NNE 3 6 29.82 1010 9 14 0.00 0.00
7:53 pm 19:53 Mostly Cloudy 78 25.6 73 22.8 85 85 Calm 29.83 1010 10 16 0.02 0.51
8:53 pm 20:53 Partly Cloudy 76 24.4 73 22.8 91 91 Calm 29.85 1011 10 16 0.01 0.25
9:37 pm 21:37 Cloudy 76 24.4 73 22.8 91 91 SE 6 9 29.85 1011 10 16 0.00 0.00
9:53 pm 21:53 Cloudy 76 24.4 73 22.8 91 91 ESE 6 9 29.85 1011 10 16 0.00 0.00
10:23 pm 22:23 Mostly Cloudy 75 23.9 72 22.2 90 90 ESE 6 9 29.85 1011 10 16 0.00 0.00
10:53 pm 22:53 Partly Cloudy 74 23.3 71 21.7 91 91 SE 7 11 29.85 1011 10 16 0.00 0.00
11:53 pm 23:53 Clear 73 22.8 70 21.1 90 90 S 6 9 29.84 1011 10 16 0.00 0.00

Powered by AerisWeather